Weather Service Report


697 
ASUS44 KFWD 310715
RWRTX 
NORTH TEXAS HOURLY WEATHER ROUNDUP
NATIONAL WEATHER SERVICE FORT WORTH TX
200 AM CDT MON AUG 31 2015

NOTE: "FAIR" INDICATES FEW OR NO CLOUDS BELOW 12,000 FEET WITH NO
SIGNIFICANT WEATHER AND/OR OBSTRUCTIONS TO VISIBILITY.

TXZ118-119-310800-
DALLAS/FORT WORTH METROPLEX
  
CITY           SKY/WX    TMP DP  RH WIND       PRES   REMARKS
DFW AIRPORT    CLEAR     79  64  60 S9        29.96R                  
DALLAS LOVE    PTCLDY    80  65  59 S9        29.96R                  
FTW MEACHAM    CLEAR     77  64  64 S6        29.96R                  
DAL-EXECUTIVE  CLEAR     77  64  64 VRB5      29.96S                  
FTW-ALLIANCE   CLEAR     76  64  66 SW5       29.96R                  
FTW-NAS-JRB    CLEAR     77  64  64 S6        29.96R                  
FTW-SPINKS     CLEAR     73  66  78 S3        29.98R                  
ARLINGTON      CLEAR     76  63  64 S6        29.97R                  
GRAND PRAIRIE  CLEAR     77  66  68 S6        29.98R                  
ADDISON        CLEAR     80  67  63 S6        29.98S                  
MESQUITE       CLEAR     74  66  78 S7        29.97S                  
LANCASTER      CLEAR     74  63  69 CALM      29.98S                  
$$

TXZ091>094-102>105-117-120-121-131>134-310800-
NORTH CENTRAL TEXAS
  
CITY           SKY/WX    TMP DP  RH WIND       PRES   REMARKS
SHRMAN/DENISON CLEAR     78  67  69 S7        29.97S                  
GAINESVILLE    CLEAR     73  60  63 S5        29.98S                  
BOWIE          CLEAR     72  62  70 SE3       29.97S                  
BRIDGEPORT     CLEAR     75  64  70 CALM      29.98R                  
DECATUR        CLEAR     76  60  57 S7        29.97S                  
DENTON         CLEAR     76  64  66 SE7       29.96R                  
MCKINNEY       CLEAR     76  66  71 S7        29.96S                  
GREENVILLE     CLEAR     75  64  69 S5        29.98R                  
ROCKWALL       CLEAR     76  67  72 S7        29.96R                  
TERRELL        CLEAR     76  66  71 S6        29.97S                  
WAXAHACHIE     CLEAR     73  65  77 SE3       29.99R                  
CLEBURNE         N/A     73  68  83 S5        29.99R                  
GRANBURY       CLEAR     76  63  63 CALM      29.98S                  
$$

TXZ083>090-098>101-113>116-127>130-139>142-154-155-310800-
WESTERN NORTH TEXAS
  
CITY           SKY/WX    TMP DP  RH WIND       PRES   REMARKS
WICHITA FALLS  CLEAR     78  61  55 S13       29.94R                  
WF-KICKAPOO    CLEAR     76  61  60 S7        29.96R                  
VERNON         CLEAR     75  54  48 S6        29.94S                  
ABILENE        CLEAR     74  58  57 S8        30.00S                  
ABILENE-DYESS  CLEAR     75  60  61 S12       29.98S                  
BRECKENRIDGE   CLEAR     75  60  59 S6        29.97S                  
GRAHAM         CLEAR     75  64  67 S3        29.96S                  
MINERAL WELLS  CLEAR     70  64  81 SE7       29.96R                  
STEPHENVILLE   CLEAR     70  64  80 CALM      30.02R                  
COMANCHE       CLEAR     70  64  79 S3        30.00S                  
BROWNWOOD      CLOUDY    66  64  94 SE5       30.00S                  
COLEMAN        CLEAR     72  62  70 SW6       30.01S                  
BRADY          CLEAR     70  63  78 S5        30.01F                  
$$

TXZ143>147-156>162-174-175-310800-
CENTRAL TEXAS
  
CITY           SKY/WX    TMP DP  RH WIND       PRES   REMARKS
WACO           CLEAR     73  68  84 SW6       29.97S                  
WACO-MCGREGOR  FOG       70  66  88 S5        29.98S VSB 1/2          
HILLSBORO      CLEAR     74  63  66 SE6       29.98S                  
CORSICANA      CLEAR     75  65  70 S6        29.98S                  
MEXIA          PTCLDY    74  66  76 E10G16    29.97S                  
HEARNE         PTCLDY    74  67  78 SE3       29.99S                  
CAMERON        MOCLDY    76  68  76 S7        29.98S                  
TEMPLE         MOCLDY    72  64  78 SE8       29.99R                  
KILLEEN        MOCLDY    73  67  81 S7        29.99R                  
KILLEEN-SKYLRK MOCLDY    73  64  73 S6        29.99R                  
FORT HOOD      MOCLDY    73  68  82 SE6       29.98R                  
GATESVILLE     MOCLDY    72  64  78 CALM      30.01S                  
HAMILTON       PTCLDY    69  63  79 S6        30.01R                  
$$

TXZ095>097-106>112-122>126-135>138-148>153-164>167-310800-
EAST TEXAS
  
CITY           SKY/WX    TMP DP  RH WIND       PRES   REMARKS
PARIS          CLEAR     75  63  64 S3        29.98S                  
SULPHUR SPRNGS CLEAR     76  66  71 CALM      30.00R                  
MOUNT PLEASANT CLEAR     72  65  79 CALM      30.00R                  
GILMER         CLEAR     75  65  72 CALM      29.99                   
MINEOLA        CLEAR     75  66  73 S5        29.99R                  
TYLER          CLEAR     74  65  73 S5        29.99R                  
LONGVIEW       PTCLDY    74  66  76 S3        29.98S                  
MARSHALL       CLEAR     73  71  91 CALM      30.01R                  
ATHENS         PTCLDY    72  64  78 CALM      29.97S                  
JACKSONVILLE   PTCLDY    76  63  64 S3        30.02S                  
HENDERSON      CLEAR     70  66  89 CALM      30.00S                  
CENTER         FAIR      74  69  83 CALM      29.99S                  
NACOGDOCHES    PTCLDY    68  64  88 CALM      29.99S                  
LUFKIN         CLEAR     71  65  81 CALM      29.99S                  
$$

SUPPLEMENTAL OBSERVATIONS (CENTRAL)
  
CITY           SKY/WX    TMP DP  RH WIND       PRES   REMARKS
LAKE TEXOMA      N/A     79  66  65 S2          N/A                   
CADDO GRASSLND   N/A     77  66  69 S5          N/A                   
PAT MAYSE LAKE   N/A     79  68  69 SE8         N/A                   
GREENVILLE       N/A     75  66  73 S3          N/A                   
CEDAR HILL       N/A     77  63  61 S5          N/A                   
ATHENS           N/A     75  63  64 S5          N/A                   
LAKE LIMESTONE   N/A     75  63  64 S3          N/A                   
MCGREGOR         N/A     75  66  73 S6          N/A                   
$$

SUPPLEMENTAL OBSERVATIONS (WEST)
  
CITY           SKY/WX    TMP DP  RH WIND       PRES   REMARKS
MILLERS CREEK    N/A     75  59  57 SW7         N/A                   
LBJ GRASSLAND    N/A    N/A N/A N/A SE5         N/A                   
COMANCHE         N/A     70  59  68 S6          N/A                   
HAMBY            N/A     73  57  56 S8          N/A                   
IVIE RESERVOIR   N/A     70  59  68 S3          N/A                   
COLORADO BEND    N/A     72  64  78 SW5         N/A                   
$$

SUPPLEMENTAL OBSERVATIONS (EAST)
  
CITY           SKY/WX    TMP DP  RH WIND       PRES   REMARKS
CLARKSVILLE      N/A     73  66  78 S5          N/A                   
TEXARKANA        N/A     68  66  94 CALM        N/A                   
LINDEN           N/A     73  64  73 CALM        N/A                   
CADDO LAKE       N/A     68  66  94 CALM        N/A                   
GILMER           N/A     73  64  73 CALM        N/A                   
HENDERSON        N/A     70  64  83 S1          N/A                   
LUFKIN           N/A     70  64  83 MISG        N/A                   
N SABINE NF      N/A     72  64  78 MISG        N/A                   
S SABINE NF      N/A     70  66  88 CALM        N/A                   
$$

SUPPLEMENTAL OBSERVATIONS ARE A COLLECTION OF AUTOMATED INSTRUMENTS
THAT ARE MAINTAINED BY A VARIETY OF FEDERAL AND STATE AGENCIES. 
CERTAIN ELEMENTS...SUCH AS HUMIDITY VALUES AND SUSTAINED WIND 
SPEEDS...MAY BE APPROXIMATED.


Return to Home page


Western Regional Climate Center, wrcc@dri.edu